Regional Weather Roundup
Issued by NWS State College, PA

Home | Current Version | Previous Version | Text Only | Print | Product List | Glossary Off
Versions: 1 2 3 4 5 6 7 8 9 10 11 12 13 14 15 16 17 18 19 20 21 22 23 24 25 26 27 28 29 30 31 32 33 34 35 36 37 38 39 40 41 42 43 44 45 46 47 48 49 50

000
ASUS41 KCTP 191310
RWRCTP

REGIONAL WEATHER ROUNDUP
NATIONAL WEATHER SERVICE STATE COLLEGE PA
800 AM EST FRI DEC 19 2014

Note: "fair" indicates few or no clouds below 12,000 feet with no
significant weather and/or obstructions to visibility.

* = STATION THAT DOES NOT REPORT PRECIPITATION /E.G. RAIN...SNOW...ETC/
    THUNDER OR FOG.

PAZ002>004-007>009-013>016-020>023-029>032-191400-
WESTERN PENNSYLVANIA

CITY           SKY/WX    TMP DP  RH WIND       PRES   REMARKS
ERIE           CLOUDY    28  21  75 NW14G21   30.19R
MEADVILLE      CLOUDY    27  24  89 NW5       30.14R
FRANKLIN*      CLOUDY    27  21  80 CALM      30.15R
NEW CASTLE       N/A     28  26  92 NW7       30.20R
BEAVER COUNTY  FRZ RAIN  28  28 100 W6        30.18R
BUTLER*        CLOUDY    28  27  93 CALM      30.18R
PITTSBURGH INT FRZ DRZL  28  26  92 W7        30.18R FOG
PITTSBURGH     CLOUDY    27  23  85 W10       30.17R FOG
INDIANA*       CLOUDY    28  27  93 W10       30.18R FOG
LATROBE        FRZ DRZL  27  27 100 SW8       30.19R
WASHINGTON CO* NOT AVBL
$$

PAZ004>006-010>012-017>019-024>028-033>037-041-042-045-046-049>053-191400-
CENTRAL PENNSYLVANIA

CITY           SKY/WX    TMP DP  RH WIND       PRES   REMARKS
BRADFORD       CLOUDY    24  20  84 NW15      30.05R WCI  11
DUBOIS         CLOUDY    27  23  85 W16G25    30.09R WCI  15
CLEARFIELD     CLOUDY    29  21  72 NW14      30.10R
JOHNSTOWN      CLOUDY    24  21  88 W14       30.07R FOG     WCI  12
ALTOONA        CLOUDY    29  23  78 NW10      30.10R
STATE COLLEGE  CLOUDY    30  23  74 NW14      30.08R
WILLIAMSPORT   CLOUDY    34  22  61 W8        30.08R
SELINSGROVE    CLOUDY    35  24  64 NW6       30.09R
FT INDIANTOWN  CLOUDY    35  23  63 VRB7      30.08R
CAPITAL CITY   CLOUDY    35  24  64 W9        30.10R
HARRISBURG     CLOUDY    35  25  66 NW10      30.09R
YORK           CLOUDY    34  24  67 W6        30.10R
$$

PAZ038>040-043-044-047-048-054-055-060>062-067>071-191400-
EASTERN PENNSYLVANIA

CITY           SKY/WX    TMP DP  RH WIND       PRES   REMARKS
SCRANTON       CLOUDY    31  21  66 NW14      30.03R
MOUNT POCONO   CLOUDY    26  20  77 N16G28    29.94S WCI  14
ALLENTOWN      CLOUDY    36  26  67 NW5       30.04R
QUAKERTOWN*    PTSUNNY   34  27  75 W7        30.04R
READING        CLOUDY    36  24  62 NW9       30.06R
LANCASTER      CLOUDY    34  24  67 W10       30.08R
COATESVILLE    CLOUDY    34  28  80 NW12      30.06R
POTTSTOWN      CLOUDY    34  25  69 W7        30.07R
BLUE BELL      CLOUDY    36  28  75 W6        30.04S
DOYLESTOWN     CLOUDY    33  27  78 W7        30.03R
WILLOW GROVE   NOT AVBL
NORTH PHILA    CLOUDY    38  25  59 W10       30.07R
PHILADELPHIA   CLOUDY    37  25  61 W10       30.08R
$$


USA.gov is the U.S. government's official web portal to all federal, state and local government web resources and services.